Regional Weather Roundup
Issued by NWS

Home | Current Version | Previous Version | Text Only | Print | Product List | Glossary Off
Versions: 1 2 3 4 5 6 7 8 9 10 11 12 13 14 15 16 17 18 19 20 21 22 23 24 25 26 27 28 29 30 31 32 33 34 35 36 37 38 39 40 41 42 43 44 45 46 47 48 49 50

000
ASUS43 KMPX 210010
RWRMN
WEATHER ROUNDUP FOR MINNESOTA
NATIONAL WEATHER SERVICE TWIN CITIES/CHANHASSEN MN
600 PM CST MON NOV 20 2017


NOTE: "FAIR" INDICATES FEW OR NO CLOUDS BELOW 12,000 FEET WITH NO
SIGNIFICANT WEATHER AND/OR OBSTRUCTIONS TO VISIBILITY. N/A MEANS
CURRENT SKY AND/OR WEATHER CONDITIONS ARE NOT AVAILABLE.

MNZ060>063-068>070-210100-
   Twin Cities Metro

CITY           SKY/WX    TMP DP  RH WIND       PRES   REMARKS
TWIN CITIES    CLOUDY    47  30  51 SW10      29.45R
6HR MIN TEMP:  43; 6HR MAX TEMP:  48;

ST PAUL        CLOUDY    45  30  55 VRB5      29.46R
CRYSTAL        CLOUDY    46  27  47 SW10      29.44R
BLAINE         MOCLDY    45  30  57 SW5       29.44R
LAKEVILLE      CLOUDY    45  30  57 SW9       29.45R
EDEN PRAIRIE   CLOUDY    46  28  49 SW12G21   29.45R
6HR MIN TEMP:  43; 6HR MAX TEMP:  47;

SOUTH ST PAUL  CLOUDY    46  30  53 SW7       29.45R
LAKE ELMO      FAIR      41  32  70 SW6       29.45S
$$
MNZ001>005-007-008-013>017-022>024-027-028-210100-
   Northwest Minnesota

CITY           SKY/WX    TMP DP  RH WIND       PRES   REMARKS
BEMIDJI        CLOUDY    40  27  57 W16G23    29.29S
HALLOCK        CLOUDY    37  28  70 NW35G43   29.33R
ROSEAU         CLOUDY    39  32  75 W16G24    29.23R
WARROAD        CLOUDY    39  30  70 W14G24    29.21R
THIEF RVR FALL CLOUDY    38  31  76 W25G38    29.33R
CROOKSTON      MOCLDY    39  32  75 W25G33    29.38R
FOSSTON        CLEAR     39  28  65 W24G37    29.34R
DETROIT LAKES  CLEAR     45  28  53 W21G31    29.40R
MOORHEAD       CLEAR     45  28  53 W28G35    29.45R
PARK RAPIDS    CLEAR     38  26  62 W13       29.34R
MAHNOMEN       FAIR      42  29  61 W36G43    29.36R
$$
MNZ006-009>011-018-025>026-210100-
   North Central Minnesota

CITY           SKY/WX    TMP DP  RH WIND       PRES   REMARKS
BAUDETTE       CLOUDY    38  28  67 W9        29.18F
FLAG ISLAND    CLOUDY    37  28  70 W14       29.16S
INTL FALLS       N/A     40  25  55 SW12G21   29.19F
6HR MIN TEMP:  37; 6HR MAX TEMP:  42;

WASKISH        PTCLDY    39  30  70 SW17G25   29.25R
BIG FORK       CLOUDY    39  27  60 SW8       29.25S
LONGVILLE      CLOUDY    39  27  60 SW8       29.32R
GRAND RAPIDS   CLOUDY    38  27  64 SW8       29.31R
CRANE LAKE     PTCLDY    37  27  65 S5        29.23S
ORR            PTCLDY    39  25  56 SW8       29.22R
COOK           CLEAR     37  27  65 SW9       29.25R
WALKER         FAIR      41  25  51 W10G20    29.31S
$$
MNZ012-019>021-037-210100-
   Northeast Minnesota

CITY           SKY/WX    TMP DP  RH WIND       PRES   REMARKS
DULUTH         PTCLDY    34  28  79 SW15      29.31F WCI  24
6HR MIN TEMP:  31; 6HR MAX TEMP:  35;

ELY            CLOUDY    36  27  69 SW12G18   29.23F
HIBBING        CLOUDY    35  26  69 SW5       29.28S WCI  31
EVELETH        CLOUDY    34  25  69 SW9       29.29S WCI  26
DULUTH HARBOR  PTCLDY    32  30  93 SW7       29.35S WCI  26
TWO HARBORS    CLEAR     30  27  86 W3        29.30F
SILVER BAY     CLEAR     28  28 100 CALM      29.28F
GRAND MARAIS     N/A     33  30  88 CALM      29.29F
G MARAIS ARPRT CLOUDY    28  27  93 S7        29.25F FOG     WCI  21
$$
MNZ029>031-032-039>041-046>048-054>057-064-210100-
   West Central Minnesota

CITY           SKY/WX    TMP DP  RH WIND       PRES   REMARKS
FERGUS FALLS   CLEAR     43  27  52 W15       29.45R
WHEATON        CLEAR     46  21  36 W9        29.49R
MORRIS         CLEAR     43  27  52 W15       29.45R
ALEXANDRIA     CLEAR     39  28  64 SW12      29.43R
ELBOW LAKE     FAIR      42  26  53 NW18      29.44R
WADENA         PTCLDY    39  27  60 SW10      29.37R
GLENWOOD       CLEAR     37  28  70 W13       29.44S
APPLETON       CLEAR     39  25  56 W10       29.48R
BENSON         CLEAR     39  25  56 W9        29.47S
ORTONVILLE     CLEAR     45  25  45 MISG      29.49R
MADISON        CLEAR     46  27  46 W10       29.50R
WILLMAR        FAIR      41  28  60 W7        29.48R
$$
MNZ033>034-036-042>043-049>051-058-059-210100-
   Central Minnesota

CITY           SKY/WX    TMP DP  RH WIND       PRES   REMARKS
ST CLOUD       PTCLDY    34  28  79 S7        29.42S WCI  28
6HR MIN TEMP:  33; 6HR MAX TEMP:  39;

SAUK CENTRE    FAIR      40  28  63 SW7       29.41F
PAYNESVILLE    CLOUDY    36  30  78 W6        29.45R
AITKIN         CLEAR     34  27  75 SW8       29.32F WCI  27
PINE RIVER     PTCLDY    37  27  65 SW6       29.38R
BRAINERD       CLEAR     35  28  75 SW9       29.36F WCI  28
STAPLES        CLEAR     37  25  60 SW8       29.37R
LONG PRAIRIE   FAIR      34  28  80 S7        29.40F WCI  28
LITTLE FALLS   CLOUDY    32  27  80 S3        29.39F
LITCHFIELD     CLOUDY    43  30  61 SW5       29.46R
BUFFALO        PTCLDY    42  28  59 SW7       29.47R
MAPLE LAKE     CLOUDY    42  31  64 SW6       29.46R
HUTCHINSON     CLOUDY    43  31  62 SW7       29.48R
$$
MNZ037-044-045-052-053-210100-
   East Central Minnesota

CITY           SKY/WX    TMP DP  RH WIND       PRES   REMARKS
PRINCETON      CLOUDY    37  30  75 S5        29.43S
MORA           CLOUDY    36  30  80 SW8       29.41F
CAMBRIDGE      CLOUDY    39  28  65 S5        29.43S
RUSH CITY      CLOUDY    38  29  69 SW7       29.42S
MOOSE LAKE     PTCLDY    36  28  75 SW8       29.34F
HINCKLEY       FAIR      36  30  80 SW8       29.40R
CLOQUET        PTCLDY    36  27  69 SW9       29.32F
MCGREGOR       CLEAR     34  30  86 S8        29.33F WCI  27
$$
MNZ071>073-080-081-089-090-097-098-210100-
   Southwest Minnesota

CITY           SKY/WX    TMP DP  RH WIND       PRES   REMARKS
MONTEVIDEO     CLEAR     46  25  42 W6        29.48R
GRANITE FALLS  CLOUDY    42  28  55 W9        29.52R
CANBY          CLOUDY    47  26  44 SW13      29.52R
MARSHALL       CLOUDY    45  26  47 W16       29.52R
REDWOOD FALLS  CLOUDY    45  26  47 SW9       29.49R
OLIVIA         PTCLDY    41  28  60 W8        29.48R
PIPESTONE      CLOUDY    37  25  60 SW7       29.54S
WINDOM         PTCLDY    45  25  45 SW12      29.53R
WORTHINGTON    CLOUDY    45  26  47 SW15      29.55R
JACKSON        CLOUDY    43  28  56 SW13      29.54S
SLAYTON        CLOUDY    42  27  56 SW14      29.53R
$$
MNZ065>067-074>077-082>085-091>093-210100-
   South Central Minnesota

CITY           SKY/WX    TMP DP  RH WIND       PRES   REMARKS
MANKATO        CLOUDY    45  29  53 SW14      29.50R
NEW ULM        PTCLDY    45  27  49 SW5       29.50R
ST JAMES       CLOUDY    45  28  53 SW12      29.53R
FAIRMONT       CLOUDY    44  30  57 SW14      29.53R
GLENCOE        PTCLDY    45  30  56 SW7       29.47R
FARIBAULT      CLOUDY    45  30  57 S8        29.49R
OWATONNA       CLOUDY    45  30  57 SW15      29.50R
WASECA         CLOUDY    43  30  61 SW15      29.51R
ALBERT LEA     CLOUDY    46  28  49 SW13      29.53S
$$
MNZ078>079-086>088-094>096-210100-
   Southeast Minnesota

CITY           SKY/WX    TMP DP  RH WIND       PRES   REMARKS
ROCHESTER      CLOUDY    46  32  58 SW18      29.49F
6HR MIN TEMP:  45; 6HR MAX TEMP:  50;

RED WING       CLOUDY    48  27  43 W10G20    29.46R
STANTON        CLOUDY    46  31  55 SW15      29.45R
DODGE CENTER   CLOUDY    45  30  57 SW15      29.49S
WINONA         CLOUDY    52  32  46 SW13      29.49F
AUSTIN         CLOUDY    46  30  53 SW13      29.52S
PRESTON        CLOUDY    47  32  55 SW14G20   29.52F
$$
ABBREVIATIONS USED IN REMARKS
   TC - TEMPERATURES IN CELSIUS
  WCI - WIND CHILL INDEX
   HX - HEAT INDEX
  VSB - VISIBILITY
$$




USA.gov is the U.S. government's official web portal to all federal, state and local government web resources and services.